CW9461 Weather Reports


time (UTC)temp
F
wind
direction
speed
knots
gust
knots
rain 1hr
in
rain 24hr
in
rain mn
in
humidity
%
barometer
mb
20260506023105 60 225 0.9 2.6 0.00 0.20 0.11 74 1006.7
20260506022606 61 118 0.0 0.9 0.00 0.20 0.11 74 1006.5
20260506022106 61 193 0.0 2.6 0.00 0.20 0.11 73 1006.4
20260506021605 61 208 1.7 4.3 0.00 0.20 0.11 73 1006.4
20260506021105 62 228 1.7 2.6 0.00 0.20 0.11 73 1006.4
20260506020606 62 212 0.0 2.6 0.00 0.20 0.11 72 1006.3
20260506020105 62 157 0.0 0.0 0.00 0.20 0.11 72 1006.4
20260506015607 63 205 0.0 1.7 0.00 0.20 0.11 71 1006.4
20260506015107 63 157 0.9 1.7 0.00 0.20 0.11 71 1006.4
20260506014607 63 225 0.0 1.7 0.00 0.20 0.11 70 1006.1
20260506014106 63 158 0.0 2.6 0.00 0.20 0.11 70 1006.1
20260506013605 64 157 0.9 1.7 0.00 0.20 0.11 70 1006.1
20260506012605 64 194 0.9 2.6 0.00 0.20 0.11 71 1006.1
20260506011605 63 180 0.9 6.1 0.00 0.20 0.11 70 1006.1
20260506011105 63 153 1.7 5.2 0.00 0.20 0.11 69 1006.0
20260506010605 64 121 2.6 4.3 0.00 0.20 0.11 69 1006.1
20260506010105 64 130 1.7 5.2 0.00 0.20 0.11 70 1005.9
20260506005605 64 153 2.6 7.8 0.00 0.20 0.11 69 1005.9
20260506005105 64 112 1.7 5.2 0.00 0.20 0.11 69 1005.8
20260506004606 64 118 2.6 5.2 0.00 0.20 0.11 69 1005.8
20260506004105 64 138 1.7 4.3 0.00 0.20 0.11 70 1005.8
20260506003605 64 138 1.7 4.3 0.00 0.20 0.11 71 1005.8
20260506003106 64 156 1.7 4.3 0.00 0.20 0.11 71 1005.8
20260506002605 64 202 0.9 2.6 0.00 0.20 0.11 71 1005.8
20260506002104 64 152 0.9 2.6 0.00 0.20 0.11 72 1005.8
20260506001604 64 217 0.9 4.3 0.00 0.20 0.11 71 1005.8
20260506001105 64 135 1.7 5.2 0.00 0.20 0.11 71 1005.8
20260506000105 64 190 1.7 5.2 0.00 0.20 0.11 71 1005.6
20260505235605 64 174 0.9 4.3 0.00 0.20 0.11 71 1005.8
20260505235106 64 199 1.7 4.3 0.00 0.20 0.11 71 1005.8
20260505234605 63 159 2.6 4.3 0.00 0.20 0.11 71 1005.8
20260505234104 63 223 0.9 4.3 0.00 0.20 0.11 71 1005.8
20260505233605 63 116 0.9 4.3 0.00 0.20 0.11 71 1005.8
20260505233105 63 176 1.7 2.6 0.00 0.20 0.11 71 1005.8
20260505232105 64 190 1.7 2.6 0.00 0.20 0.11 71 1005.8
20260505231106 64 246 0.0 2.6 0.00 0.20 0.11 71 1006.0
20260505230605 64 171 0.9 1.7 0.00 0.20 0.11 72 1005.9
20260505230106 63 170 0.0 1.7 0.00 0.20 0.11 72 1006.1
20260505225606 63 157 0.0 0.9 0.00 0.20 0.11 71 1005.9
20260505225105 63 157 0.9 1.7 0.00 0.20 0.11 71 1005.8
20260505224605 63 120 0.9 2.6 0.00 0.20 0.11 72 1006.1
20260505223605 63 247 0.9 2.6 0.00 0.20 0.11 72 1006.1
20260505222605 63 196 0.9 2.6 0.00 0.20 0.11 71 1006.1
20260505222105 63 147 1.7 2.6 0.00 0.20 0.11 70 1006.1
20260505221605 64 163 1.7 4.3 0.00 0.20 0.11 70 1006.1
20260505221105 64 187 1.7 4.3 0.00 0.20 0.11 70 1006.1
20260505220605 64 112 1.7 2.6 0.00 0.20 0.11 70 1006.1
20260505220105 64 143 0.9 2.6 0.00 0.20 0.11 70 1006.1
20260505215605 64 228 0.9 2.6 0.00 0.20 0.11 70 1006.1
20260505215105 63 157 1.7 2.6 0.00 0.20 0.11 70 1006.1
20260505214604 63 202 0.0 4.3 0.00 0.20 0.11 70 1006.1
20260505213604 63 160 1.7 4.3 0.00 0.20 0.11 69 1006.1
20260505213105 63 225 0.9 5.2 0.00 0.20 0.11 69 1006.1
20260505212605 63 242 1.7 2.6 0.00 0.20 0.11 69 1006.1
20260505212106 63 228 1.7 5.2 0.00 0.20 0.11 69 1006.1
20260505211605 63 281 1.7 4.3 0.00 0.20 0.11 69 1006.1
20260505211105 64 300 1.7 4.3 0.00 0.20 0.11 69 1006.1
20260505210604 64 292 1.7 4.3 0.00 0.20 0.11 69 1006.1
20260505210106 64 242 1.7 4.3 0.00 0.20 0.11 69 1006.1
20260505205606 64 283 1.7 4.3 0.00 0.20 0.11 69 1006.1
20260505205105 64 257 0.9 2.6 0.00 0.20 0.11 69 1006.1
20260505204604 63 224 1.7 4.3 0.00 0.20 0.11 69 1006.2
20260505204105 63 164 0.9 6.1 0.00 0.20 0.11 70 1006.1
20260505203605 63 239 2.6 5.2 0.00 0.20 0.11 70 1006.3
20260505203105 63 337 0.9 5.2 0.00 0.20 0.11 71 1006.4
20260505202104 63 268 2.6 5.2 0.00 0.20 0.11 71 1006.4
20260505201604 62 292 1.7 4.3 0.00 0.20 0.11 72 1006.2
20260505201105 62 252 3.5 6.1 0.00 0.20 0.11 72 1006.4
20260505200606 62 253 1.7 5.2 0.00 0.20 0.11 73 1006.4
20260505200105 62 279 2.6 5.2 0.00 0.20 0.11 73 1006.4
20260505195605 62 276 1.7 5.2 0.00 0.20 0.11 74 1006.4
20260505195105 62 264 2.6 7.0 0.00 0.20 0.11 74 1006.8
20260505194606 61 259 2.6 6.1 0.00 0.20 0.11 74 1006.4
20260505194106 61 253 2.6 8.7 0.00 0.20 0.11 75 1006.7
20260505193604 61 235 2.6 7.0 0.00 0.20 0.11 75 1006.4
20260505193105 61 243 3.5 7.8 0.00 0.20 0.11 75 1006.8
20260505192105 61 268 2.6 4.3 0.00 0.20 0.11 75 1006.8
20260505191605 61 241 1.7 5.2 0.00 0.20 0.11 76 1006.7
20260505191104 61 288 2.6 6.1 0.00 0.20 0.11 77 1006.6
20260505190604 60 267 1.7 6.1 0.00 0.20 0.11 78 1006.8
20260505190105 60 240 2.6 5.2 0.00 0.20 0.11 78 1006.4
20260505185605 60 288 1.7 6.1 0.00 0.20 0.11 77 1006.4
20260505184606 60 240 1.7 5.2 0.00 0.20 0.11 79 1006.6
20260505184105 59 278 2.6 7.0 0.00 0.20 0.11 80 1006.8
20260505183604 59 279 1.7 5.2 0.00 0.20 0.11 81 1006.4
20260505183105 59 259 1.7 6.1 0.00 0.20 0.11 81 1006.6
20260505182605 59 283 2.6 5.2 0.00 0.20 0.11 82 1006.8
20260505181605 58 249 2.6 6.1 0.00 0.20 0.11 83 1006.6
20260505180605 58 247 2.6 6.1 0.00 0.20 0.11 85 1006.8
20260505180105 58 255 3.5 7.0 0.00 0.20 0.11 85 1006.4
20260505175605 58 274 4.3 7.8 0.00 0.20 0.11 86 1006.6
20260505175104 57 263 2.6 5.2 0.00 0.20 0.11 86 1006.4
20260505174604 57 275 3.5 7.8 0.00 0.20 0.11 87 1006.4
20260505174105 57 283 2.6 7.0 0.00 0.20 0.11 88 1006.4
20260505173605 57 274 1.7 7.8 0.00 0.20 0.11 88 1006.4
20260505173106 57 231 1.7 4.3 0.00 0.20 0.11 89 1006.1
20260505172605 56 256 2.6 6.1 0.00 0.20 0.11 90 1006.1
20260505172104 56 255 1.7 5.2 0.00 0.20 0.11 91 1006.1
20260505171604 56 245 1.7 7.0 0.00 0.20 0.11 92 1006.1
20260505171106 55 234 0.9 5.2 0.00 0.20 0.11 93 1006.1
20260505170606 55 239 0.9 5.2 0.00 0.20 0.11 93 1006.2
20260505170104 56 219 0.9 4.3 0.00 0.20 0.11 94 1006.1
20260505165604 55 168 0.0 0.0 0.00 0.20 0.11 94 1006.3
20260505165104 55 180 0.0 0.0 0.00 0.20 0.11 94 1006.4
20260505164605 55 247 0.0 1.7 0.00 0.20 0.11 94 1006.4
20260505164105 55 292 0.0 0.9 0.00 0.20 0.11 95 1006.3
20260505163604 55 241 0.0 0.9 0.00 0.20 0.11 95 1006.2
20260505163105 55 288 0.0 0.9 0.00 0.20 0.11 95 1006.1
20260505162605 55 180 0.0 0.9 0.00 0.20 0.11 95 1006.1
20260505162105 55 221 0.9 5.2 0.00 0.20 0.11 95 1006.1
20260505161606 55 245 1.7 2.6 0.00 0.20 0.11 95 1006.2
20260505161104 55 270 0.0 2.6 0.00 0.20 0.11 95 1006.1
20260505160605 55 270 0.0 1.7 0.00 0.20 0.11 95 1006.1
20260505160105 55 247 0.9 1.7 0.00 0.20 0.11 95 1006.1
20260505153105 54 292 0.0 0.0 0.00 0.20 0.11 94 1005.9
20260505152605 54 305 0.9 1.7 0.00 0.20 0.11 94 1005.9
20260505151605 54 279 0.9 2.6 0.00 0.20 0.11 94 1005.8
20260505151104 54 280 1.7 5.2 0.00 0.20 0.11 95 1005.8
20260505150604 54 286 0.9 5.2 0.00 0.20 0.11 95 1005.6
20260505150105 54 293 0.9 6.1 0.00 0.20 0.11 95 1005.8
20260505140604 53 112 0.9 1.7 0.00 0.20 0.11 95 1005.3
20260505140104 53 123 0.0 1.7 0.00 0.20 0.11 95 1005.1
20260505124605 52 112 0.9 2.6 0.00 0.20 0.11 96 1005.1
20260505124105 52 135 1.7 2.6 0.00 0.20 0.11 96 1005.1
20260505122604 52 148 0.9 4.3 0.00 0.20 0.11 96 1004.7
20260505122105 52 135 0.9 2.6 0.00 0.20 0.11 96 1004.9
20260505121604 52 135 0.9 1.7 0.00 0.20 0.11 96 1004.9
20260505121104 52 135 0.0 1.7 0.00 0.20 0.11 96 1005.1
20260505120604 52 112 0.0 0.9 0.00 0.20 0.11 96 1005.1
20260505120104 52 112 0.0 2.6 0.00 0.20 0.11 96 1005.1
20260505115604 52 135 0.9 2.6 0.00 0.20 0.11 96 1005.1
20260505114605 52 135 0.0 2.6 0.00 0.20 0.11 96 1005.1
20260505114105 52 135 0.0 1.7 0.00 0.20 0.11 95 1005.1
20260505113603 52 93 0.9 2.6 0.00 0.20 0.11 95 1005.1
20260505113104 52 112 0.9 1.7 0.00 0.20 0.11 95 1004.9
20260505112604 52 112 0.0 1.7 0.00 0.20 0.11 95 1004.9
20260505112104 52 91 0.9 2.6 0.00 0.20 0.11 96 1005.1
20260505111604 52 135 0.9 2.6 0.00 0.20 0.11 96 1005.1
20260505111104 52 134 1.7 4.3 0.00 0.20 0.11 96 1004.7
20260505110604 52 143 1.7 2.6 0.00 0.20 0.11 95 1004.9
20260505110104 52 135 1.7 2.6 0.00 0.20 0.11 95 1005.1
20260505102105 52 155 0.9 2.6 0.01 0.20 0.11 95 1005.1
20260505101605 52 135 0.0 0.9 0.01 0.20 0.11 95 1005.4
20260505100604 52 130 0.0 0.9 0.01 0.20 0.11 95 1005.4
20260505100104 52 135 0.0 1.7 0.01 0.20 0.11 95 1005.4
20260505095604 52 135 0.0 1.7 0.01 0.20 0.11 95 1005.1
20260505095104 52 135 0.9 2.6 0.01 0.20 0.11 95 1005.1
20260505094604 52 123 0.9 1.7 0.01 0.20 0.11 95 1005.1
20260505093604 52 135 0.0 1.7 0.02 0.20 0.11 95 1005.4
20260505093104 52 123 0.0 1.7 0.03 0.20 0.11 95 1005.4
20260505092604 52 112 0.9 1.7 0.02 0.19 0.10 95 1005.4
20260505092104 52 112 0.9 2.6 0.02 0.19 0.10 95 1005.8
20260505091604 52 185 0.9 1.7 0.02 0.19 0.10 94 1005.8
20260505091104 52 135 0.0 2.6 0.02 0.19 0.10 94 1005.8
20260505090604 52 143 0.9 1.7 0.02 0.19 0.10 94 1005.8
20260505090104 52 106 0.9 1.7 0.02 0.19 0.10 94 1005.4
20260505085604 52 135 0.9 1.7 0.03 0.19 0.10 94 1005.4
20260505085104 52 135 0.0 4.3 0.04 0.19 0.10 94 1005.4
20260505084604 52 135 0.0 0.0 0.05 0.19 0.10 94 1005.8
20260505083604 52 135 0.0 0.0 0.05 0.18 0.09 94 1006.1
20260505083105 52 135 0.0 1.7 0.04 0.17 0.08 94 1006.1
20260505082105 52 135 0.0 0.9 0.05 0.17 0.08 94 1006.1
20260505081604 52 91 0.0 0.9 0.06 0.17 0.08 93 1006.1
20260505081103 52 112 0.0 1.7 0.07 0.17 0.08 93 1005.8
20260505080604 52 112 0.0 0.0 0.07 0.17 0.08 93 1005.8
20260505080104 52 112 0.0 0.9 0.07 0.17 0.08 93 1005.8
20260505075604 52 157 0.0 0.0 0.07 0.16 0.07 93 1005.8
20260505075104 52 157 0.0 0.0 0.06 0.15 0.06 93 1006.1
20260505074605 52 90 0.0 0.0 0.05 0.14 0.05 93 1006.1
20260505074104 52 157 0.0 0.9 0.05 0.14 0.05 93 1006.1
20260505073604 52 112 0.0 1.7 0.04 0.13 0.04 93 1006.1
20260505073104 52 243 0.0 0.9 0.05 0.13 0.04 93 1006.1
20260505072604 52 67 0.0 0.0 0.05 0.13 0.04 93 1006.1
20260505072104 52 67 0.0 0.0 0.04 0.12 0.03 93 1006.4
20260505071604 52 67 0.0 0.9 0.03 0.11 0.02 93 1006.1
20260505071105 52 112 0.0 0.9 0.02 0.10 0.01 93 1006.1
20260505070604 52 112 0.0 1.7 0.02 0.10 0.01 93 1006.1
20260505070103 52 225 0.0 0.0 0.02 0.10 0.10 93 1006.1
20260505065605 52 225 0.0 0.0 0.02 0.10 0.10 93 1006.1
20260505065104 52 259 0.0 2.6 0.02 0.09 0.09 93 1006.4
20260505063603 52 246 1.7 4.3 0.02 0.09 0.09 93 1006.3
20260505062604 52 261 2.6 6.1 0.03 0.08 0.08 93 1006.1
20260505062105 52 247 0.9 2.6 0.03 0.08 0.08 93 1006.1
20260505061605 52 270 0.0 0.0 0.03 0.08 0.08 93 1006.1
20260505061105 52 270 0.0 0.9 0.03 0.08 0.08 93 1005.9
20260505060605 53 225 0.0 0.0 0.03 0.08 0.08 93 1005.8
20260505060106 53 260 0.0 1.7 0.04 0.08 0.08 93 1005.8
20260505055606 53 279 0.0 0.0 0.04 0.08 0.08 92 1005.9
20260505055105 53 270 0.0 0.9 0.03 0.07 0.07 92 1005.8
20260505054606 53 247 0.9 1.7 0.04 0.07 0.07 92 1005.8
20260505054106 53 247 0.0 1.7 0.04 0.07 0.07 92 1006.0
20260505053606 53 267 0.0 1.7 0.04 0.07 0.07 92 1005.9
20260505053105 53 247 0.0 0.0 0.04 0.06 0.06 92 1006.1
20260505052605 53 247 0.0 0.0 0.04 0.05 0.05 92 1006.1
20260505052106 53 202 0.0 0.0 0.04 0.05 0.05 91 1006.1
20260505051605 53 135 0.0 1.7 0.04 0.05 0.05 91 1005.9
20260505051105 53 157 0.0 0.0 0.05 0.05 0.05 91 1006.1
20260505050606 53 164 0.0 0.9 0.05 0.05 0.05 91 1006.1
20260505050106 53 251 0.0 0.9 0.04 0.04 0.04 91 1006.1
20260505041605 54 303 1.7 4.3 0.01 0.01 0.01 88 1006.6
20260505041105 54 288 1.7 2.6 0.00 0.00 0.00 88 1006.6
20260505040605 55 304 1.7 2.6 0.00 0.00 0.00 87 1006.6
20260505040105 55 295 1.7 4.3 0.00 0.00 0.00 87 1006.6
20260505035606 55 282 2.6 5.2 0.00 0.00 0.00 87 1006.4
20260505035105 55 266 2.6 4.3 0.00 0.00 0.00 87 1006.4
20260505034606 55 313 1.7 2.6 0.00 0.00 0.00 86 1006.3
20260505034106 55 295 1.7 4.3 0.00 0.00 0.00 86 1006.1
20260505033606 55 301 0.9 2.6 0.00 0.00 0.00 86 1006.0
20260505033106 55 245 1.7 4.3 0.00 0.00 0.00 85 1005.8
20260505032105 55 255 4.3 7.8 0.00 0.00 0.00 84 1005.6
20260505031606 55 255 3.5 10.4 0.00 0.00 0.00 84 1005.4
20260505031107 55 259 2.6 6.1 0.00 0.00 0.00 83 1005.4
20260505030105 55 242 2.6 7.0 0.00 0.00 0.00 82 1005.4
20260505025605 55 274 2.6 7.0 0.00 0.00 0.00 82 1005.4
20260505025105 55 232 4.3 7.0 0.00 0.00 0.00 82 1005.4
20260505024605 56 245 3.5 7.0 0.00 0.00 0.00 82 1005.4
20260505024106 56 290 2.6 6.1 0.00 0.00 0.00 82 1005.4